Regional Weather Roundup
Issued by NWS Little Rock, AR

Home | Current Version | Previous Version | Graphics & Text | Print | Product List | Glossary On
Versions: 1 2 3 4 5 6 7 8 9 10 11 12 13 14 15 16 17 18 19 20 21 22 23 24 25 26 27 28 29 30 31 32 33 34 35 36 37 38 39 40 41 42 43 44 45 46 47 48 49 50
786
ASUS44 KLZK 271705
RWRLZK

WEATHER ROUNDUP FOR ARKANSAS
NATIONAL WEATHER SERVICE LITTLE ROCK AR
1200 PM CDT MON MAR 27 2017

NOTE: "FAIR" INDICATES FEW OR NO CLOUDS BELOW 12,000 FEET WITH NO
SIGNIFICANT WEATHER AND/OR OBSTRUCTIONS TO VISIBILITY.

ARZ001-003-010-029-271800-
NORTHWEST ARKANSAS

CITY           SKY/WX    TMP DP  RH WIND       PRES   REMARKS
FAYETTEVILLE   CLOUDY    60  57  89 W8        29.86R
FORT SMITH     CLOUDY    63  56  78 W17       29.86R
HARRISON       CLOUDY    60  57  89 SE3       29.84R
BENTONVILLE    CLOUDY    57  54  88 NW10      29.87R
ROGERS         CLOUDY    59  55  87 NW9       29.87R
SILOAM SPGS    CLOUDY    55  52  88 NW14      29.88R
HIGHFILL       CLOUDY    58  56  93 NW10      29.86R
SPRINGDALE     PTSUNNY   63  59  88 NW9       29.87R
$$

ARZ004-005-016-271800-
NORTH CENTRAL ARKANSAS

CITY           SKY/WX    TMP DP  RH WIND       PRES   REMARKS
BATESVILLE     CLOUDY    61  57  88 W3        29.84S
FLIPPIN        CLOUDY    57  52  82 E3        29.82S
MTN HOME       LGT RAIN  58  55  90 SE6       29.83S
$$

ARZ040-041-271800-
WEST CENTRAL ARKANSAS

CITY           SKY/WX    TMP DP  RH WIND       PRES   REMARKS
MENA           MOSUNNY   73  63  68 SW7G17    29.86S
MOUNT IDA      MOSUNNY   73  61  65 VRB7      29.82S
$$

ARZ009-017-025-026-028-271800-
NORTHEAST ARKANSAS

CITY           SKY/WX    TMP DP  RH WIND       PRES   REMARKS
CORNING        LGT RAIN  57  57 100 SE18      29.83F
JONESBORO      TSTM      60  58  92 W6        29.83F FOG
NEWPORT        CLOUDY    61  58  90 MISG        N/A
WALNUT RIDGE   CLOUDY    57  54  88 E10       29.83S
BLYTHEVILLE    CLOUDY    70  64  81 SW14      29.84F
NW BLYTHEVILLE CLOUDY    41  25  52 N9        29.85F
$$

ARZ022-023-033-042-044-271800-
CENTRAL ARKANSAS

CITY           SKY/WX    TMP DP  RH WIND       PRES   REMARKS
LITTLE ROCK    PTSUNNY   73  66  78 SW17      29.84F
CONWAY           N/A     73  64  73 SW14G20   29.81F
SEARCY         CLOUDY    72  66  81 S13G22    29.84F
HOT SPRINGS    CLOUDY    71  65  81 W9G20     29.85F
RUSSELLVILLE   MOSUNNY   70  62  76 SW8G17    29.81F
CLINTON        CLOUDY    61  59  94 CALM      29.84F
$$

ARZ036-271800-
EAST ARKANSAS

CITY           SKY/WX    TMP DP  RH WIND       PRES   REMARKS
WEST MEMPHIS   MOSUNNY   75  66  73 S21G30    29.84F
$$

ARZ050-053-066-070-073-271800-
SOUTHWEST ARKANSAS

CITY           SKY/WX    TMP DP  RH WIND       PRES   REMARKS
ARKADELPHIA    CLOUDY    72  66  81 SW10      29.86F
CAMDEN         PTSUNNY   73  64  73 S8        29.88F
TEXARKANA      CLOUDY    72  65  78 SW15      29.88R
EL DORADO      CLOUDY    73  65  75 SW14      29.90S
DE QUEEN       PTSUNNY   71  64  78 W14       29.85S
$$

ARZ056-057-069-271800-
SOUTHEAST ARKANSAS

CITY           SKY/WX    TMP DP  RH WIND       PRES   REMARKS
PINE BLUFF     PTSUNNY   76  64  66 SW22G29   29.86F
STUTTGART      PTSUNNY   73  59  60 SW22G30   29.87S
MONTICELLO       N/A     76  64  66 SW15      29.89F

$$






USA.gov is the U.S. government's official web portal to all federal, state and local government web resources and services.